EW3309 Weather Reports


Display with metric or nautical units.
time (UTC)temp
F
wind
direction
speed
MPH
gust
MPH
rain 1hr
in
rain 24hr
in
rain mn
in
humidity
%
barometer
mb
20260504210030 69 309 0.0 0.0 0.00 0.00 0.00 52 1014.4
20260504204526 69 252 0.0 0.0 0.00 0.00 0.00 53 1014.5
20260504203032 69 305 0.0 0.0 0.00 0.00 0.00 52 1014.3
20260504201523 68 298 0.0 0.0 0.00 0.00 0.00 54 1014.3
20260504200024 68 290 0.0 0.0 0.00 0.00 0.00 53 1014.4
20260504194531 67 312 0.0 0.0 0.00 0.00 0.00 54 1014.5
20260504193019 67 279 0.0 0.0 0.00 0.00 0.00 55 1014.7
20260504191517 67 295 0.0 0.0 0.00 0.00 0.00 56 1014.8
20260504190014 67 250 0.0 0.0 0.00 0.00 0.00 57 1014.9
20260504184513 66 279 0.0 0.0 0.00 0.00 0.00 56 1015.1
20260504183012 66 233 0.0 0.0 0.00 0.00 0.00 58 1015.1
20260504181510 65 306 0.0 0.0 0.00 0.00 0.00 60 1015.2
20260504180013 64 292 0.0 0.0 0.00 0.00 0.00 61 1015.3
20260504174503 64 290 0.0 0.0 0.00 0.00 0.00 64 1015.1
20260504173000 64 263 0.0 0.0 0.00 0.00 0.00 63 1015.1
20260504171558 63 252 0.0 0.0 0.00 0.00 0.00 68 1014.9
20260504081544 60 269 0.0 0.0 0.00 0.00 0.00 79 1014.2
20260504044528 61 252 0.0 0.0 0.00 0.00 0.00 74 1013.8
20260504043026 61 244 0.0 0.0 0.00 0.00 0.00 73 1013.8
20260504041525 61 254 0.0 0.0 0.00 0.00 0.00 73 1013.7
20260504040029 61 251 0.0 0.0 0.00 0.00 0.00 72 1013.3
20260504034536 61 255 0.0 0.0 0.00 0.00 0.00 71 1013.3
20260504033026 61 257 0.0 0.0 0.00 0.00 0.00 71 1013.5
20260504031517 62 216 0.0 0.0 0.00 0.00 0.00 70 1013.1
20260504030014 62 233 0.0 0.0 0.00 0.00 0.00 69 1013.1
20260504024513 62 290 0.0 0.0 0.00 0.00 0.00 68 1012.9
20260504023013 62 298 0.0 0.0 0.00 0.00 0.00 67 1013.0
20260504021513 62 304 0.0 0.0 0.00 0.00 0.00 67 1013.1
20260504020012 62 281 0.0 0.0 0.00 0.00 0.00 66 1012.9
20260504014517 62 279 0.0 0.0 0.00 0.00 0.00 65 1012.7
20260504013010 63 295 0.0 0.0 0.00 0.00 0.00 64 1012.8
20260504011510 63 279 0.0 0.0 0.00 0.00 0.00 63 1012.4
20260504010010 64 248 0.0 0.0 0.00 0.00 0.00 62 1012.3
20260504004508 65 259 0.0 0.0 0.00 0.00 0.00 61 1012.0
20260504003008 66 292 0.0 0.0 0.00 0.00 0.00 60 1011.7
20260504001508 68 254 0.0 0.0 0.00 0.00 0.00 57 1011.5
20260504000007 69 247 0.0 0.0 0.00 0.00 0.00 55 1011.3
20260503234508 71 256 0.0 0.0 0.00 0.00 0.00 53 1011.4
20260503233002 71 288 0.0 0.0 0.00 0.00 0.00 53 1011.2
20260503231502 71 250 0.0 0.0 0.00 0.00 0.00 55 1011.4
20260503224557 69 244 0.0 0.0 0.00 0.00 0.00 58 1011.9
20260503223056 68 278 0.0 0.0 0.00 0.00 0.00 59 1011.7
20260503221556 67 298 0.0 0.0 0.00 0.00 0.00 61 1011.8
20260503220058 66 227 0.0 0.0 0.00 0.00 0.00 63 1012.1
20260503214557 66 294 0.0 0.0 0.00 0.00 0.00 63 1012.3
20260503213123 66 271 0.0 0.0 0.00 0.00 0.00 64 1012.3
20260503211618 66 269 0.0 0.0 0.00 0.00 0.00 63 1012.3
20260503210052 67 295 0.0 0.0 0.00 0.00 0.00 63 1012.3